[[{"header":{"parameterUnit":"m.s-1","parameterCategory":2,"la1":30.2991,"la2":30.254,"lo1":-89.0895,"lo2":-89.0444,"dy":0.0017,"dx":0.0017,"nx":28,"ny":28,"refTime":"2024-08-31T09:00:00:Z","depth":"0","parameterNumber":2,"parameterNumberName":"U-component_of_CURRENTS"},"data":[0,0,0,0,0,0,0,0,0,0,0,0,0,0,0,0,0,0,0,0,0,0,0,0,0,0,0,0,0,0,0,0,0,0,0,0,0,0,0,0,0,0,0,0,0,0,0,0,0,0,0,0,0,0,0,0,0,0,0.2379,0.2378,0,0.2264,0.2262,0.226,0.2129,0.2127,0.2126,0.2125,0.1984,0.1981,0.1979,0,0,0,0,0,0,0,0,0,0,0,0,0,0.2441,0.244,0.2379,0.2378,0.2377,0.2264,0.2262,0.226,0.2129,0.2127,0.2126,0.2124,0.1985,0.1982,0.1979,0,0,0,0,0,0,0,0,0,0,0,0,0,0.2373,0.244,0.2379,0.2303,0.2295,0.2265,0.2262,0.2259,0.2129,0.2127,0.2125,0.2123,0.1986,0.1982,0.1978,0.1998,0,0,0.1967,0.1966,0,0,0,0,0,0,0,0,0.2377,0.237,0.2315,0.2308,0.23,0.2214,0.2232,0.2173,0.213,0.2186,0.2125,0.2122,0.2064,0.2054,0.2028,0.1991,0.1985,0.1967,0.1965,0.1963,0.1962,0,0,0,0,0,0,0,0.2382,0.2374,0.2327,0.2314,0.2305,0.226,0.2247,0.222,0.2133,0.2181,0.2172,0.217,0.2058,0.2032,0.2024,0.1983,0.1967,0.1964,0.1961,0.196,0.1953,0.1955,0,0,0,0,0,0,0.2413,0.2379,0.2331,0.2324,0.2341,0.2261,0.2247,0.2239,0.2133,0.2117,0.2172,0.2165,0.2039,0.2028,0.2019,0.2053,0.1963,0.196,0.1957,0.1951,0.1954,0.1956,0,0,0,0,0,0,0.2415,0.241,0.2336,0.2354,0.2342,0.2263,0.2254,0.2238,0.2215,0.2128,0.211,0.2168,0.2037,0.2024,0.2011,0.2046,0.1958,0.1955,0.1949,0.1952,0.1955,0.211,0,0,0,0,0,0,0.2417,0.2411,0.2414,0.2356,0.2342,0.2326,0.2256,0.2237,0.2219,0.2208,0.2119,0.2103,0.2035,0.2017,0.2007,0.2039,0.1952,0.1946,0.195,0.1954,0.2102,0.2118,0.2132,0,0,0,0,0,0.242,0.2422,0.2414,0.2409,0.2349,0.2328,0.2317,0.2249,0.2222,0.2219,0.2169,0.2106,0.2033,0.2016,0.2004,0.2036,0.1944,0.1949,0.1954,0.2096,0.2115,0.2131,0,0,0,0,0,0,0.2422,0.2408,0.2398,0.2389,0.2373,0.2308,0.2298,0.227,0.2228,0.2218,0.2136,0.2118,0.212,0.2064,0.2047,0.2045,0.1978,0.198,0.209,0.2107,0.2122,0.212,0.1949,0,0,0,0,0,0.244,0.2449,0.2424,0.2418,0.2418,0.2371,0.2355,0.2321,0.228,0.2257,0.2205,0.2155,0.2131,0.2108,0.2071,0.2076,0.2053,0.2088,0.2102,0.2115,0.2107,0.2128,0.2144,0.1971,0.1971,0.1971,0,0,0.2434,0.2433,0.2432,0.2424,0.2401,0.2402,0.2353,0.2343,0.2341,0.2254,0.2239,0.221,0.2146,0.2147,0.2142,0.2102,0.216,0.2121,0.2132,0.2116,0.2134,0.2151,0.2166,0.1974,0.1973,0.1973,0,0,0.2437,0.2438,0.2451,0.2454,0.2451,0.2431,0.2442,0.2408,0.239,0.239,0.2334,0.2335,0.2278,0.2249,0.2225,0.2304,0.2243,0.229,0.2353,0.2375,0.239,0.2402,0.2429,0.2443,0.2289,0.2289,0.2289,0,0.2429,0.2443,0.2449,0.2467,0.2467,0.2455,0.2463,0.2456,0.2422,0.2421,0.24,0.2363,0.2326,0.2331,0.2357,0.2337,0.2336,0.2295,0.2396,0.2407,0.2417,0.2441,0.2454,0.2297,0.2296,0.2296,0.2295,0,0.2443,0.2459,0.2468,0.2493,0.2501,0.2508,0.2514,0.2525,0.2519,0.2505,0.2524,0.2493,0.2459,0.2471,0.2435,0.2488,0.2464,0.2423,0.2355,0.2444,0.2464,0.2475,0.2309,0.2306,0.2304,0.2302,0,0,0.2397,0.2465,0.2465,0.2485,0.2517,0.2517,0.2552,0.2566,0.2576,0.2586,0.2596,0.2607,0.2595,0.2569,0.2546,0.2577,0.2674,0.2536,0.2533,0.2569,0.2733,0.2691,0.2698,0.2654,0.2655,0.2657,0.2733,0,0.2397,0.244,0.2474,0.2503,0.2522,0.2547,0.2572,0.2593,0.2607,0.262,0.2637,0.2632,0.2631,0.2621,0.2665,0.2649,0.2702,0.2657,0.2633,0.2633,0.259,0.2708,0.2521,0.2569,0.2742,0.2744,0.2745,0,0.2386,0.2424,0.2457,0.2513,0.2522,0.2538,0.2574,0.2597,0.2636,0.2646,0.2675,0.267,0.2716,0.2699,0.2762,0.2732,0.2754,0.2761,0.2763,0.2667,0.2609,0.25,0.2581,0.2382,0.276,0.2759,0.2758,0,0.2338,0.2402,0.2429,0.2447,0.2511,0.2527,0.2554,0.2596,0.2612,0.2654,0.2661,0.2715,0.2719,0.2771,0.2793,0.278,0.2858,0.2831,0.2828,0.2825,0.2629,0.2605,0.251,0.2904,0.2904,0.2904,0.2904,0,0.2312,0.2329,0.2408,0.242,0.2449,0.2499,0.2522,0.2557,0.2598,0.2617,0.2662,0.2676,0.2738,0.2779,0.2815,0.2853,0.2879,0.2864,0.285,0.2681,0.2662,0.2445,0.24,0.2907,0.2906,0.2906,0.2905,0,0.2243,0.2295,0.2332,0.2406,0.2425,0.2441,0.2497,0.2517,0.2556,0.2582,0.2592,0.2652,0.2709,0.2773,0.2844,0.286,0.2787,0.2913,0.2719,0.2681,0.2492,0.2464,0.2352,0.2306,0.2933,0.2933,0.2932,0,0.2208,0.2223,0.2307,0.2332,0.2363,0.2399,0.2425,0.2482,0.2506,0.2559,0.2568,0.2629,0.2678,0.2771,0.28,0.2873,0.2753,0.2729,0.268,0.2476,0.2434,0.2355,0.2319,0.2495,0.2491,0.2488,0.2485,0,0.214,0.2174,0.2208,0.2276,0.231,0.2356,0.2397,0.2408,0.2472,0.2491,0.2532,0.2574,0.2653,0.2636,0.271,0.2714,0.2518,0.2667,0.2486,0.2124,0.1997,0.1944,0.2462,0.2456,0.2459,0.2461,0.2463,0.2464,0.2074,0.209,0.2149,0.2211,0.226,0.231,0.2311,0.2357,0.238,0.2382,0.2458,0.246,0.2431,0.2515,0.2484,0.2244,0.2383,0.2115,0.2117,0.2069,0.1956,0.2434,0.239,0.2392,0.2394,0.2396,0.2398,0,0.1986,0.203,0.2086,0.215,0.2191,0.2248,0.2288,0.227,0.2267,0.2288,0.2301,0.2208,0.2111,0.2037,0.184,0.168,0.1616,0.1562,0.1354,0.1371,0.1785,0.169,0.1451,0.1451,0.1451,0.1452,0.1452,0.1452,0.1936,0.1963,0.2019,0.207,0.212,0.2124,0.2136,0.211,0.211,0.2014,0.1934,0.1912,0.1751,0.1387,0.1082,0.1057,0.0935,0.087,0.0954,0.1139,0.1187,0.1233,0.1126,0.0774,0.0773,0.041,0.0407,0.0405]},{"header":{"parameterUnit":"m.s-1","parameterCategory":2,"la1":30.2991,"la2":30.254,"lo1":-89.0895,"lo2":-89.0444,"dy":0.0017,"dx":0.0017,"nx":28,"ny":28,"refTime":"2024-08-31T09:00:00:Z","depth":"0","parameterNumber":3,"parameterNumberName":"V-component_of_CURRENTS"},"data":[0,0,0,0,0,0,0,0,0,0,0,0,0,0,0,0,0,0,0,0,0,0,0,0,0,0,0,0,0,0,0,0,0,0,0,0,0,0,0,0,0,0,0,0,0,0,0,0,0,0,0,0,0,0,0,0,0,0,-0.0508,-0.0508,0,-0.0482,-0.0481,-0.0481,-0.0434,-0.0434,-0.0433,-0.0433,-0.0392,-0.0392,-0.0391,0,0,0,0,0,0,0,0,0,0,0,0,0,-0.0494,-0.0495,-0.0508,-0.0508,-0.0508,-0.0482,-0.0481,-0.048,-0.0435,-0.0434,-0.0433,-0.0432,-0.0393,-0.0392,-0.0391,0,0,0,0,0,0,0,0,0,0,0,0,0,-0.0485,-0.0495,-0.0508,-0.0484,-0.0482,-0.0482,-0.0481,-0.048,-0.0435,-0.0434,-0.0433,-0.0432,-0.0393,-0.0392,-0.0391,-0.0405,0,0,-0.0389,-0.0389,0,0,0,0,0,0,0,0,-0.0485,-0.0485,-0.0487,-0.0486,-0.0483,-0.0463,-0.0462,-0.0455,-0.0435,-0.045,-0.0433,-0.0432,-0.0417,-0.0414,-0.0408,-0.0403,-0.0401,-0.0389,-0.0388,-0.0388,-0.0388,0,0,0,0,0,0,0,-0.0486,-0.0486,-0.0495,-0.0488,-0.0485,-0.0466,-0.0464,-0.046,-0.0436,-0.0448,-0.0445,-0.0447,-0.0415,-0.0408,-0.0406,-0.0401,-0.0389,-0.0388,-0.0388,-0.0387,-0.0386,-0.0387,0,0,0,0,0,0,-0.0498,-0.0487,-0.0495,-0.0494,-0.0485,-0.0468,-0.0465,-0.0468,-0.0437,-0.0432,-0.0448,-0.0445,-0.041,-0.0407,-0.0405,-0.0407,-0.0388,-0.0387,-0.0387,-0.0386,-0.0386,-0.0387,0,0,0,0,0,0,-0.0497,-0.0499,-0.0497,-0.0492,-0.049,-0.0469,-0.0473,-0.0468,-0.0461,-0.0437,-0.0431,-0.0447,-0.0409,-0.0406,-0.04,-0.0405,-0.0387,-0.0386,-0.0385,-0.0386,-0.0386,-0.0419,0,0,0,0,0,0,-0.0497,-0.0499,-0.0502,-0.0493,-0.0491,-0.0496,-0.0474,-0.0468,-0.0465,-0.0461,-0.0435,-0.043,-0.0408,-0.0401,-0.0399,-0.0404,-0.0386,-0.0385,-0.0386,-0.0386,-0.0417,-0.042,-0.0423,0,0,0,0,0,-0.0497,-0.0501,-0.0502,-0.0503,-0.0498,-0.0497,-0.0494,-0.0473,-0.0466,-0.0464,-0.0447,-0.043,-0.0404,-0.0401,-0.0399,-0.0403,-0.0384,-0.0385,-0.0386,-0.0416,-0.042,-0.0423,0,0,0,0,0,0,-0.0491,-0.0497,-0.0498,-0.0503,-0.0503,-0.049,-0.0486,-0.0481,-0.0466,-0.0462,-0.0439,-0.0433,-0.043,-0.0416,-0.0413,-0.0405,-0.0391,-0.0392,-0.0415,-0.0418,-0.0421,-0.0409,-0.0385,0,0,0,0,0,-0.0496,-0.0502,-0.0506,-0.0509,-0.0512,-0.0504,-0.0501,-0.0492,-0.0482,-0.0474,-0.0459,-0.0443,-0.0433,-0.0425,-0.0414,-0.0414,-0.0382,-0.0414,-0.0417,-0.042,-0.0409,-0.0372,-0.037,-0.039,-0.039,-0.039,0,0,-0.0495,-0.05,-0.0502,-0.0509,-0.0506,-0.0507,-0.0499,-0.0498,-0.0495,-0.0474,-0.0463,-0.0456,-0.0437,-0.0431,-0.0428,-0.0419,-0.0399,-0.0421,-0.0423,-0.041,-0.0372,-0.037,-0.0368,-0.039,-0.039,-0.039,0,0,-0.0492,-0.0502,-0.0505,-0.0509,-0.0514,-0.0512,-0.0516,-0.0512,-0.0504,-0.0502,-0.0486,-0.048,-0.0466,-0.0449,-0.044,-0.0455,-0.0419,-0.0458,-0.0459,-0.0425,-0.0422,-0.042,-0.038,-0.0373,-0.0456,-0.0456,-0.0456,0,-0.0488,-0.0494,-0.0504,-0.0508,-0.051,-0.0517,-0.0517,-0.0515,-0.0508,-0.0502,-0.05,-0.0479,-0.047,-0.0456,-0.0461,-0.0461,-0.0432,-0.0448,-0.0427,-0.0424,-0.0421,-0.038,-0.0373,-0.0457,-0.0457,-0.0457,-0.0457,0,-0.0486,-0.0492,-0.0495,-0.0503,-0.0508,-0.0512,-0.0518,-0.052,-0.0519,-0.0512,-0.0505,-0.0494,-0.0474,-0.0481,-0.0475,-0.0456,-0.044,-0.0438,-0.0416,-0.0421,-0.0378,-0.037,-0.046,-0.0459,-0.0459,-0.0458,0,0,-0.0464,-0.0488,-0.0486,-0.0491,-0.0507,-0.0508,-0.0514,-0.0514,-0.0507,-0.0508,-0.0491,-0.0491,-0.0485,-0.0474,-0.0471,-0.0448,-0.0412,-0.0436,-0.0434,-0.0393,-0.0326,-0.0309,-0.0298,-0.0406,-0.0405,-0.0404,-0.0306,0,-0.0454,-0.0461,-0.0476,-0.0479,-0.0484,-0.0499,-0.0501,-0.0503,-0.0502,-0.0489,-0.0484,-0.0468,-0.0482,-0.0472,-0.0455,-0.0423,-0.0391,-0.0438,-0.033,-0.0326,-0.0308,-0.0288,-0.021,-0.0116,-0.0297,-0.0296,-0.0295,0,-0.0437,-0.0447,-0.045,-0.0468,-0.047,-0.0473,-0.0475,-0.0478,-0.0471,-0.0468,-0.0458,-0.045,-0.0427,-0.0434,-0.0371,-0.04,-0.0361,-0.0336,-0.0331,-0.0295,-0.0294,-0.014,-0.0093,-0.0108,-0.0281,-0.0283,-0.0284,0,-0.0405,-0.0423,-0.0425,-0.0432,-0.0453,-0.0454,-0.0462,-0.0465,-0.046,-0.0447,-0.0432,-0.0413,-0.0385,-0.035,-0.0313,-0.0332,-0.0233,-0.0249,-0.0192,-0.019,-0.009,-0.0082,-0.0038,-0.0184,-0.0184,-0.0185,-0.0185,0,-0.0383,-0.038,-0.041,-0.041,-0.0407,-0.0432,-0.0422,-0.0429,-0.0426,-0.0404,-0.0413,-0.0382,-0.036,-0.0312,-0.0287,-0.0211,-0.0206,-0.0176,-0.0159,-0.0101,-0.0095,-0.0078,-0.0113,-0.0181,-0.0182,-0.0182,-0.0183,0,-0.0338,-0.036,-0.0363,-0.0387,-0.0391,-0.0387,-0.0399,-0.0392,-0.0395,-0.0364,-0.0355,-0.0335,-0.0268,-0.0242,-0.0168,-0.016,-0.0083,-0.0073,-0.0009,0.0014,0.0033,-0.0007,0.0086,0.0088,0.001,0.0011,0.0012,0,-0.0311,-0.031,-0.0335,-0.0339,-0.0347,-0.035,-0.0349,-0.0366,-0.0356,-0.0328,-0.0302,-0.0242,-0.0173,-0.0074,-0.0031,0.004,-0.0003,0.0114,0.0085,0.0059,0.0027,0.0009,0.0001,0.021,0.0213,0.0215,0.0217,0,-0.0258,-0.027,-0.0277,-0.0293,-0.0296,-0.0301,-0.0301,-0.0286,-0.029,-0.0245,-0.0176,-0.0116,-0.0016,0.0108,0.0166,0.0184,0.0119,0.0155,0.0129,0.0189,0.0178,0.018,0.0111,0.0234,0.0233,0.0231,0.023,0.023,-0.021,-0.021,-0.023,-0.0242,-0.025,-0.025,-0.0231,-0.021,-0.0162,-0.0066,-0.0042,0.0121,0.0231,0.0344,0.0307,0.0319,0.0274,0.0329,0.0286,0.0273,0.0261,0.0221,0.035,0.0349,0.0348,0.0347,0.0346,0,-0.0157,-0.0174,-0.0182,-0.0199,-0.0198,-0.0218,-0.0196,-0.0151,-0.0058,0.0079,0.019,0.0438,0.054,0.0549,0.0575,0.0497,0.0441,0.0428,0.0428,0.0413,0.0404,0.0396,0.0542,0.0542,0.0542,0.0542,0.0542,0.0542,-0.0132,-0.0135,-0.0154,-0.015,-0.0157,-0.0134,-0.0112,-0.0021,0.0091,0.0335,0.054,0.0668,0.0763,0.0706,0.0631,0.0569,0.0485,0.0484,0.04,0.0389,0.0376,0.0364,0.0349,0.0482,0.0482,0.047,0.0469,0.0469]}],[{"header":{"parameterUnit":"m.s-1","parameterCategory":2,"la1":30.2991,"la2":30.254,"lo1":-89.0895,"lo2":-89.0444,"dy":0.0017,"dx":0.0017,"nx":28,"ny":28,"refTime":"2024-08-31T09:00:00:Z","depth":"2","parameterNumber":2,"parameterNumberName":"U-component_of_CURRENTS"},"data":[0,0,0,0,0,0,0,0,0,0,0,0,0,0,0,0,0,0,0,0,0,0,0,0,0,0,0,0,0,0,0,0,0,0,0,0,0,0,0,0,0,0,0,0,0,0,0,0,0,0,0,0,0,0,0,0,0,0,0.1286,0.1285,0,0.1241,0.124,0.124,0.1261,0.1262,0.1263,0.1264,0.1267,0.1266,0.1265,0,0,0,0,0,0,0,0,0,0,0,0,0,0.1287,0.1287,0.1286,0.1285,0.1285,0.1241,0.124,0.124,0.1261,0.1262,0.1263,0.1264,0.1267,0.1266,0.1265,0,0,0,0,0,0,0,0,0,0,0,0,0,0.1269,0.1287,0.1286,0.129,0.1289,0.1241,0.124,0.124,0.126,0.1262,0.1264,0.1265,0.1268,0.1266,0.1265,0.1222,0,0,0.126,0.126,0,0,0,0,0,0,0,0,0.127,0.1269,0.129,0.1289,0.1289,0.1258,0.1242,0.1236,0.126,0.1271,0.1264,0.1266,0.1267,0.1266,0.1253,0.1222,0.1223,0.126,0.1259,0.1259,0.1258,0,0,0,0,0,0,0,0.1271,0.127,0.1268,0.1289,0.1288,0.1258,0.1258,0.124,0.1261,0.1271,0.1272,0.1266,0.1267,0.1254,0.1253,0.1223,0.126,0.1259,0.1258,0.1258,0.1269,0.127,0,0,0,0,0,0,0.128,0.1272,0.127,0.1267,0.1283,0.1257,0.1257,0.1266,0.1261,0.1261,0.1265,0.1267,0.1256,0.1255,0.1254,0.1317,0.1259,0.1257,0.1257,0.1268,0.1269,0.127,0,0,0,0,0,0,0.128,0.1281,0.1271,0.1267,0.1264,0.1256,0.1265,0.1265,0.1291,0.1256,0.1257,0.1297,0.1257,0.1256,0.1274,0.1313,0.1257,0.1255,0.1266,0.1268,0.127,0.137,0,0,0,0,0,0,0.1281,0.1282,0.1304,0.1268,0.1265,0.1277,0.1264,0.1262,0.1282,0.1287,0.1283,0.1282,0.1258,0.1276,0.1272,0.131,0.1254,0.1265,0.1267,0.1269,0.1366,0.1375,0.1384,0,0,0,0,0,0.1281,0.1299,0.1305,0.1305,0.1292,0.1278,0.1274,0.1272,0.1283,0.1302,0.13,0.1285,0.1287,0.1275,0.1271,0.1309,0.1264,0.1266,0.1269,0.1362,0.1374,0.1384,0,0,0,0,0,0,0.1311,0.1302,0.1308,0.1325,0.132,0.1283,0.1293,0.1294,0.1305,0.131,0.1293,0.1293,0.1328,0.1298,0.1286,0.1318,0.1275,0.1277,0.1347,0.1358,0.1367,0.136,0.1253,0,0,0,0,0,0.1327,0.134,0.1327,0.1341,0.1343,0.1327,0.1327,0.1321,0.1314,0.1322,0.1318,0.1314,0.1324,0.1328,0.1321,0.133,0.1323,0.1353,0.1362,0.137,0.1361,0.1395,0.1407,0.1279,0.1279,0.1279,0,0,0.1339,0.1336,0.1344,0.1348,0.1341,0.1346,0.1333,0.1333,0.1341,0.1317,0.134,0.1348,0.1336,0.1356,0.1368,0.1343,0.1406,0.1373,0.1381,0.1367,0.1399,0.1412,0.1423,0.1281,0.128,0.128,0,0,0.1354,0.1373,0.1387,0.1391,0.1388,0.1372,0.1387,0.1371,0.1378,0.1395,0.1388,0.1425,0.1421,0.1426,0.1428,0.148,0.1459,0.1479,0.1515,0.1549,0.156,0.157,0.1596,0.1607,0.1478,0.1478,0.1478,0,0.1376,0.1388,0.1389,0.1405,0.141,0.1396,0.1411,0.1405,0.1398,0.1409,0.142,0.1463,0.1458,0.1498,0.1512,0.1504,0.1508,0.1479,0.1563,0.1572,0.158,0.1604,0.1615,0.1483,0.1482,0.1482,0.1481,0,0.1396,0.1415,0.1423,0.1441,0.1452,0.1455,0.1451,0.1463,0.1477,0.1477,0.1535,0.1545,0.1577,0.1587,0.1562,0.1617,0.1598,0.158,0.154,0.1599,0.1621,0.1631,0.149,0.1489,0.1487,0.1486,0,0,0.1418,0.1434,0.1443,0.1454,0.147,0.1472,0.1495,0.1508,0.1528,0.156,0.1609,0.1648,0.167,0.1672,0.167,0.1686,0.1757,0.165,0.165,0.1683,0.1828,0.1734,0.1735,0.1753,0.1755,0.1756,0.1828,0,0.1435,0.146,0.1471,0.1498,0.1507,0.1518,0.1539,0.1553,0.1574,0.1611,0.1655,0.17,0.1698,0.1728,0.1756,0.1752,0.1782,0.1738,0.1757,0.1757,0.1672,0.1743,0.157,0.1612,0.1837,0.1839,0.184,0,0.1447,0.1463,0.1493,0.1515,0.1525,0.1549,0.1585,0.16,0.1643,0.1668,0.174,0.1763,0.1825,0.1805,0.1872,0.1843,0.1842,0.1836,0.1839,0.1715,0.168,0.1583,0.162,0.1855,0.1854,0.1853,0.1852,0,0.1435,0.1472,0.1493,0.1506,0.1538,0.1567,0.1589,0.1627,0.1648,0.1712,0.1752,0.183,0.1883,0.1911,0.1919,0.19,0.1965,0.1947,0.1869,0.1863,0.1698,0.1673,0.1988,0.1988,0.1988,0.1988,0.1988,0,0.1428,0.1448,0.1494,0.1506,0.1542,0.1575,0.1619,0.1644,0.1702,0.1732,0.1793,0.1834,0.1906,0.1949,0.1948,0.1944,0.2011,0.1883,0.1878,0.1728,0.1707,0.1889,0.1877,0.199,0.199,0.1989,0.1989,0,0.1399,0.143,0.1456,0.151,0.1532,0.1563,0.1632,0.1655,0.1715,0.1764,0.1793,0.1864,0.1913,0.1965,0.2003,0.1975,0.1975,0.195,0.1764,0.1733,0.1846,0.1838,0.1888,0.1886,0.1883,0.1881,0.188,0,0.137,0.1384,0.1453,0.1478,0.151,0.1564,0.159,0.1655,0.1679,0.1762,0.1777,0.1852,0.1852,0.1894,0.1871,0.1875,0.1934,0.1702,0.1628,0.1847,0.1837,0.1833,0.1828,0.1468,0.1463,0.1459,0.1456,0,0.1323,0.1366,0.1396,0.1448,0.1492,0.1527,0.1576,0.1591,0.1656,0.167,0.1686,0.1692,0.1741,0.1642,0.1651,0.1631,0.1689,0.1619,0.1918,0.1504,0.1452,0.1441,0.1451,0.1421,0.1424,0.1427,0.1429,0.143,0.1297,0.131,0.1363,0.1401,0.1457,0.1475,0.1472,0.1511,0.1508,0.1496,0.1538,0.1463,0.1467,0.1361,0.1336,0.1347,0.1473,0.1393,0.1406,0.1422,0.1345,0.1289,0.1214,0.1216,0.1218,0.122,0.1222,0,0.1232,0.1269,0.1305,0.1349,0.1365,0.1433,0.1444,0.1388,0.1346,0.1318,0.1288,0.1066,0.0993,0.104,0.0986,0.0991,0.0995,0.0958,0.0943,0.0978,0.1009,0.091,0.0665,0.0664,0.0662,0.0661,0,0,0.1219,0.1218,0.1227,0.1234,0.1282,0.1276,0.1268,0.1205,0.1143,0.0964,0.088,0.0893,0.0926,0.0731,0.0741,0.0693,0.0827,0.0663,0.1106,0.1119,0.1148,0.1255,0.1141,0,0,0,0,0]},{"header":{"parameterUnit":"m.s-1","parameterCategory":2,"la1":30.2991,"la2":30.254,"lo1":-89.0895,"lo2":-89.0444,"dy":0.0017,"dx":0.0017,"nx":28,"ny":28,"refTime":"2024-08-31T09:00:00:Z","depth":"2","parameterNumber":3,"parameterNumberName":"V-component_of_CURRENTS"},"data":[0,0,0,0,0,0,0,0,0,0,0,0,0,0,0,0,0,0,0,0,0,0,0,0,0,0,0,0,0,0,0,0,0,0,0,0,0,0,0,0,0,0,0,0,0,0,0,0,0,0,0,0,0,0,0,0,0,0,0.0092,0.0092,0,0.0097,0.0098,0.0098,0.0083,0.0082,0.0082,0.0081,0.0078,0.0078,0.0079,0,0,0,0,0,0,0,0,0,0,0,0,0,0.0093,0.0093,0.0092,0.0092,0.0092,0.0097,0.0098,0.0098,0.0083,0.0082,0.0081,0.0081,0.0078,0.0078,0.0079,0,0,0,0,0,0,0,0,0,0,0,0,0,0.0097,0.0093,0.0092,0.0083,0.0082,0.0097,0.0098,0.0098,0.0083,0.0082,0.0081,0.008,0.0077,0.0078,0.0079,0.0105,0,0,0.0082,0.0082,0,0,0,0,0,0,0,0,0.0097,0.0097,0.0085,0.0084,0.0083,0.0086,0.0097,0.0099,0.0083,0.0086,0.0081,0.008,0.0079,0.008,0.0087,0.0105,0.0105,0.0082,0.0082,0.0083,0.0083,0,0,0,0,0,0,0,0.0096,0.0097,0.0097,0.0085,0.0084,0.0087,0.0086,0.0097,0.009,0.0085,0.0084,0.0081,0.0079,0.0086,0.0086,0.0105,0.0082,0.0083,0.0083,0.0083,0.0094,0.0093,0,0,0,0,0,0,0.0091,0.0097,0.0097,0.0097,0.0085,0.0087,0.0087,0.0088,0.009,0.0088,0.0081,0.008,0.0085,0.0085,0.0086,0.0072,0.0083,0.0083,0.0084,0.0094,0.0094,0.0093,0,0,0,0,0,0,0.0091,0.0091,0.0097,0.0095,0.0095,0.0088,0.009,0.0089,0.0076,0.0087,0.0085,0.0067,0.0084,0.0085,0.0081,0.0073,0.0084,0.0085,0.0094,0.0094,0.0093,0.0072,0,0,0,0,0,0,0.0091,0.0091,0.0086,0.0094,0.0095,0.0094,0.0091,0.009,0.0076,0.0074,0.0074,0.0074,0.0083,0.008,0.0082,0.0074,0.0085,0.0094,0.0094,0.0094,0.0073,0.0071,0.0069,0,0,0,0,0,0.0091,0.0093,0.0086,0.0086,0.009,0.0093,0.0094,0.0087,0.0076,0.0072,0.007,0.0073,0.0078,0.0081,0.0083,0.0075,0.0095,0.0094,0.0094,0.0074,0.0071,0.0069,0,0,0,0,0,0,0.009,0.0091,0.0085,0.0085,0.0081,0.0089,0.0087,0.0078,0.0075,0.0072,0.0074,0.0074,0.0067,0.0076,0.0078,0.0077,0.0086,0.0086,0.007,0.0068,0.0066,0.0089,0.0086,0,0,0,0,0,0.0087,0.0091,0.0086,0.0087,0.0084,0.0081,0.0078,0.0075,0.0075,0.0072,0.007,0.0071,0.0072,0.0071,0.0077,0.008,0.0101,0.0076,0.0074,0.0072,0.0093,0.0112,0.0114,0.0092,0.0092,0.0092,0,0,0.0089,0.0089,0.009,0.0087,0.0086,0.009,0.0077,0.0076,0.0081,0.0074,0.0075,0.0064,0.007,0.0071,0.0068,0.0074,0.0086,0.0071,0.007,0.0092,0.0112,0.0114,0.0116,0.0091,0.0091,0.0091,0,0,0.01,0.009,0.0097,0.0093,0.0087,0.009,0.0082,0.008,0.0078,0.0077,0.007,0.0055,0.0059,0.0061,0.0063,0.0056,0.0074,0.0049,0.0061,0.0078,0.008,0.0083,0.01,0.0104,0.0049,0.0049,0.0049,0,0.0098,0.0108,0.0098,0.0101,0.0099,0.0086,0.0091,0.0094,0.009,0.0095,0.0075,0.0072,0.006,0.0069,0.0058,0.0052,0.0068,0.0066,0.0076,0.0079,0.0082,0.0099,0.0104,0.0048,0.0048,0.0049,0.0049,0,0.0116,0.0118,0.0121,0.0123,0.0118,0.0122,0.0119,0.0118,0.0106,0.0109,0.0104,0.0086,0.0088,0.0067,0.0059,0.0069,0.0074,0.0069,0.0084,0.0083,0.0101,0.0106,0.0047,0.0047,0.0047,0.0048,0,0,0.0126,0.0133,0.0132,0.0139,0.0129,0.0134,0.014,0.015,0.0163,0.0144,0.0163,0.013,0.0115,0.0116,0.0094,0.0097,0.0106,0.009,0.0091,0.011,0.0149,0.0146,0.0152,0.0102,0.0104,0.0104,0.0148,0,0.0142,0.0159,0.0153,0.0169,0.0178,0.0167,0.0176,0.0181,0.0183,0.02,0.0181,0.0183,0.0137,0.0127,0.0124,0.0122,0.0122,0.0095,0.0145,0.0147,0.0147,0.0159,0.0171,0.0212,0.0154,0.0155,0.0156,0,0.0161,0.0171,0.0186,0.0202,0.0203,0.0204,0.022,0.0226,0.0246,0.0246,0.0246,0.0241,0.024,0.0197,0.0203,0.019,0.017,0.016,0.0161,0.0178,0.0156,0.0205,0.0224,0.0165,0.0164,0.0164,0.0163,0,0.0182,0.0197,0.0213,0.0213,0.0223,0.0226,0.0226,0.0237,0.0253,0.0276,0.0297,0.0298,0.0309,0.029,0.0261,0.0236,0.028,0.0244,0.0224,0.0223,0.0257,0.0257,0.0249,0.0249,0.0249,0.0249,0.0249,0,0.0205,0.0218,0.0223,0.0229,0.0252,0.024,0.0264,0.0268,0.0286,0.0332,0.0316,0.0367,0.0333,0.0354,0.0307,0.0298,0.0317,0.0243,0.0241,0.0246,0.0246,0.0225,0.0222,0.0251,0.025,0.025,0.025,0,0.0227,0.0228,0.0253,0.0261,0.0263,0.0274,0.0283,0.0311,0.0313,0.0377,0.0387,0.0432,0.0471,0.0437,0.043,0.0367,0.0345,0.0329,0.0337,0.0335,0.0263,0.0258,0.0318,0.0318,0.0318,0.0319,0.0319,0,0.0243,0.0257,0.0276,0.0289,0.0289,0.0302,0.0321,0.0322,0.0359,0.0433,0.0483,0.0537,0.0618,0.0604,0.0514,0.0452,0.0405,0.038,0.0323,0.0282,0.0273,0.0267,0.0262,0.0354,0.0355,0.0355,0.0356,0,0.0276,0.0277,0.0296,0.0326,0.0345,0.0379,0.0404,0.0441,0.0473,0.056,0.0684,0.0754,0.0739,0.0712,0.0594,0.0532,0.0389,0.0385,0.0368,0.0327,0.0318,0.0308,0.0302,0.0359,0.0359,0.0359,0.0358,0.0358,0.0296,0.032,0.0342,0.0378,0.0401,0.0457,0.0502,0.0555,0.0658,0.0775,0.0836,0.0918,0.0834,0.0712,0.0603,0.0445,0.0455,0.0369,0.0367,0.0365,0.0354,0.0345,0.039,0.0389,0.0389,0.0389,0.0389,0,0.033,0.0357,0.0394,0.0443,0.0492,0.0482,0.0566,0.0638,0.0782,0.0863,0.0978,0.0918,0.0876,0.0736,0.0524,0.0411,0.0382,0.0348,0.0339,0.0338,0.0336,0.0321,0.0349,0.0349,0.0348,0.0347,0,0,0.0343,0.0394,0.0425,0.0522,0.0547,0.0618,0.067,0.0774,0.0842,0.0971,0.0986,0.1037,0.0892,0.0719,0.0588,0.046,0.0408,0.0423,0.0474,0.048,0.0479,0.0377,0.0357,0,0,0,0,0]}],[{"header":{"parameterUnit":"m.s-1","parameterCategory":2,"la1":30.2991,"la2":30.254,"lo1":-89.0895,"lo2":-89.0444,"dy":0.0017,"dx":0.0017,"nx":28,"ny":28,"refTime":"2024-08-31T09:00:00:Z","depth":"4","parameterNumber":2,"parameterNumberName":"U-component_of_CURRENTS"},"data":[0,0,0,0,0,0,0,0,0,0,0,0,0,0,0,0,0,0,0,0,0,0,0,0,0,0,0,0,0,0,0,0,0,0,0,0,0,0,0,0,0,0,0,0,0,0,0,0,0,0,0,0,0,0,0,0,0,0,0.0313,0.0314,0,0.0374,0.0375,0.0376,0.0428,0.0429,0.0429,0.043,0.0492,0.0493,0.0494,0,0,0,0,0,0,0,0,0,0,0,0,0,0.0299,0.0299,0.0313,0.0314,0.0315,0.0374,0.0375,0.0376,0.0428,0.0429,0.0429,0.043,0.0492,0.0493,0.0494,0,0,0,0,0,0,0,0,0,0,0,0,0,0.0327,0.0299,0.0313,0.0348,0.0352,0.0374,0.0375,0.0376,0.0428,0.0429,0.043,0.043,0.0491,0.0493,0.0495,0.0487,0,0,0.05,0.05,0,0,0,0,0,0,0,0,0.0325,0.0327,0.0342,0.0345,0.035,0.0395,0.0393,0.0413,0.0428,0.0399,0.043,0.0431,0.0459,0.0463,0.0473,0.049,0.0493,0.05,0.0501,0.0502,0.0502,0,0,0,0,0,0,0,0.0323,0.0325,0.0337,0.0343,0.0347,0.0381,0.0385,0.0398,0.0423,0.0401,0.0405,0.0412,0.0461,0.0471,0.0475,0.0494,0.05,0.0501,0.0502,0.0503,0.0563,0.0564,0,0,0,0,0,0,0.0312,0.0323,0.0335,0.0339,0.034,0.038,0.0385,0.0379,0.0423,0.0431,0.0411,0.0414,0.0468,0.0473,0.0477,0.0512,0.0502,0.0503,0.0504,0.0562,0.0563,0.0564,0,0,0,0,0,0,0.0311,0.0312,0.0333,0.0334,0.0339,0.0379,0.0372,0.038,0.0407,0.0431,0.0438,0.0432,0.0469,0.0475,0.0498,0.0513,0.0504,0.0505,0.0562,0.0563,0.0563,0.0555,0,0,0,0,0,0,0.031,0.0311,0.0306,0.0332,0.0338,0.0348,0.0372,0.038,0.0408,0.0413,0.045,0.0456,0.047,0.0496,0.05,0.0515,0.0507,0.0561,0.0562,0.0563,0.0555,0.0556,0.0557,0,0,0,0,0,0.0309,0.0296,0.0305,0.0307,0.0329,0.0348,0.0354,0.0386,0.0409,0.0415,0.0444,0.0456,0.0507,0.0497,0.0502,0.0518,0.056,0.0562,0.0563,0.0554,0.0556,0.0557,0,0,0,0,0,0,0.0294,0.03,0.0311,0.0302,0.0325,0.0357,0.0366,0.0392,0.042,0.043,0.0457,0.0465,0.0496,0.0505,0.0494,0.054,0.0538,0.054,0.053,0.0531,0.0532,0.0511,0.0508,0,0,0,0,0,0.0285,0.0275,0.0296,0.0293,0.0301,0.0337,0.0352,0.0375,0.0402,0.0417,0.0444,0.0474,0.0502,0.0514,0.0538,0.0553,0.057,0.057,0.0571,0.0571,0.0558,0.0623,0.0629,0.0568,0.0568,0.0568,0,0,0.0284,0.0284,0.0283,0.029,0.031,0.0323,0.0349,0.0371,0.0389,0.0418,0.0449,0.0479,0.0509,0.0534,0.0549,0.0544,0.0593,0.0573,0.0573,0.056,0.0625,0.0631,0.0636,0.0569,0.0569,0.0569,0,0,0.0273,0.0272,0.0262,0.0275,0.0299,0.0319,0.0327,0.0363,0.0385,0.0415,0.0447,0.0478,0.0519,0.0539,0.0556,0.0573,0.0601,0.0592,0.0574,0.0637,0.0643,0.0648,0.0656,0.0662,0.0587,0.0587,0.0587,0,0.0276,0.0259,0.0267,0.0265,0.0278,0.0317,0.0324,0.0349,0.0392,0.0412,0.0425,0.0495,0.0519,0.0552,0.0558,0.0574,0.0602,0.0567,0.0639,0.0644,0.065,0.0657,0.0663,0.0587,0.0587,0.0587,0.0587,0,0.0261,0.0252,0.025,0.0256,0.0271,0.0282,0.0314,0.0342,0.0378,0.0409,0.0454,0.0483,0.0529,0.0542,0.0554,0.0602,0.0605,0.0638,0.0634,0.0655,0.0661,0.0668,0.0587,0.0587,0.0587,0.0587,0,0,0.0259,0.024,0.0243,0.0241,0.0265,0.0278,0.0307,0.0343,0.0378,0.0412,0.0451,0.0489,0.0518,0.0537,0.0562,0.0596,0.0649,0.0628,0.0632,0.063,0.0761,0.0704,0.0706,0.0712,0.0714,0.0715,0.0742,0,0.0251,0.0229,0.023,0.0234,0.023,0.0268,0.0294,0.0336,0.0382,0.043,0.0462,0.0515,0.0515,0.055,0.0582,0.0646,0.0672,0.0636,0.0745,0.0746,0.069,0.0714,0.072,0.0747,0.0749,0.075,0.0751,0,0.0242,0.0223,0.0212,0.0216,0.0222,0.024,0.0296,0.0322,0.0392,0.0433,0.048,0.0528,0.0572,0.0584,0.0669,0.0655,0.0701,0.0733,0.0737,0.0689,0.0703,0.0728,0.0763,0.0762,0.0761,0.0761,0.076,0,0.0232,0.0217,0.0204,0.0206,0.022,0.0239,0.0261,0.0328,0.0362,0.0445,0.0494,0.0552,0.0603,0.0665,0.0738,0.0724,0.0833,0.0832,0.0805,0.08,0.0846,0.0841,0.0895,0.0895,0.0895,0.0895,0.0895,0,0.0216,0.0208,0.0199,0.0194,0.0197,0.0223,0.0259,0.03,0.0371,0.0412,0.0495,0.054,0.0638,0.0715,0.0755,0.0798,0.0859,0.0792,0.0812,0.0838,0.0832,0.0849,0.0844,0.0896,0.0895,0.0895,0.0895,0,0.0204,0.0195,0.018,0.0187,0.0188,0.0197,0.024,0.0275,0.0353,0.0411,0.0446,0.0558,0.0644,0.0727,0.0835,0.0825,0.0876,0.0884,0.0879,0.0901,0.0779,0.0773,0.0819,0.0817,0.0816,0.0815,0.0814,0,0.0193,0.0178,0.0169,0.016,0.016,0.0175,0.0191,0.0257,0.0293,0.0407,0.043,0.055,0.0616,0.0709,0.0793,0.086,0.0865,0.0875,0.0823,0.0761,0.0776,0.0772,0.0768,0.0812,0.0811,0.0811,0.0811,0,0.0164,0.0165,0.0152,0.013,0.0134,0.0132,0.0157,0.0182,0.0263,0.0342,0.0419,0.0493,0.0582,0.0662,0.0747,0.079,0.0856,0.0861,0.0862,0.0813,0.0753,0.0769,0.0766,0.0806,0.0807,0.0807,0.0807,0,0.0156,0.0135,0.0118,0.0102,0.0092,0.0081,0.0103,0.0145,0.019,0.0318,0.0336,0.0463,0.0555,0.0626,0.0696,0.0745,0.0716,0.0693,0.0703,0.0709,0.0667,0.0575,0.0586,0,0,0,0,0,0.0152,0.0116,0.0087,0.006,0.005,0.0043,0.0073,0.0109,0.0188,0.0226,0.0283,0.0364,0.0469,0.0537,0.0567,0.0635,0.0714,0.0666,0.0689,0.078,0.0786,0.0751,0,0,0,0,0,0,0.0142,0.0111,0.0076,0.0024,0.0003,-0.0012,0.0004,0.0058,0.0086,0.018,0.0245,0.0325,0.0439,0.0449,0.0554,0.0576,0.0579,0.0743,0.0742,0.0777,0.0782,0.0786,0.0752,0,0,0,0,0]},{"header":{"parameterUnit":"m.s-1","parameterCategory":2,"la1":30.2991,"la2":30.254,"lo1":-89.0895,"lo2":-89.0444,"dy":0.0017,"dx":0.0017,"nx":28,"ny":28,"refTime":"2024-08-31T09:00:00:Z","depth":"4","parameterNumber":3,"parameterNumberName":"V-component_of_CURRENTS"},"data":[0,0,0,0,0,0,0,0,0,0,0,0,0,0,0,0,0,0,0,0,0,0,0,0,0,0,0,0,0,0,0,0,0,0,0,0,0,0,0,0,0,0,0,0,0,0,0,0,0,0,0,0,0,0,0,0,0,0,0.0322,0.0322,0,0.0324,0.0324,0.0324,0.0323,0.0323,0.0323,0.0323,0.0341,0.0341,0.0342,0,0,0,0,0,0,0,0,0,0,0,0,0,0.0288,0.0289,0.0322,0.0322,0.0322,0.0324,0.0324,0.0324,0.0323,0.0323,0.0323,0.0323,0.0341,0.0341,0.0342,0,0,0,0,0,0,0,0,0,0,0,0,0,0.0298,0.0289,0.0322,0.0321,0.0321,0.0324,0.0324,0.0324,0.0323,0.0323,0.0323,0.0323,0.034,0.0341,0.0342,0.0352,0,0,0.0345,0.0345,0,0,0,0,0,0,0,0,0.0298,0.03,0.0321,0.0321,0.0321,0.0322,0.0318,0.0334,0.0323,0.0323,0.0323,0.0323,0.0336,0.0337,0.0339,0.0353,0.0353,0.0345,0.0346,0.0346,0.0346,0,0,0,0,0,0,0,0.0297,0.0299,0.0324,0.0321,0.0321,0.031,0.0312,0.0321,0.0332,0.0323,0.0323,0.0322,0.0336,0.0338,0.0339,0.0354,0.0345,0.0346,0.0346,0.0347,0.037,0.037,0,0,0,0,0,0,0.0297,0.0299,0.0323,0.0323,0.0307,0.0311,0.0313,0.0323,0.0331,0.0332,0.0322,0.0322,0.0336,0.0338,0.034,0.0362,0.0346,0.0347,0.0347,0.037,0.037,0.037,0,0,0,0,0,0,0.0296,0.03,0.0323,0.031,0.0312,0.0312,0.0323,0.0323,0.0326,0.033,0.0331,0.0325,0.0336,0.0339,0.0352,0.0362,0.0347,0.0348,0.037,0.037,0.037,0.0399,0,0,0,0,0,0,0.0296,0.03,0.0312,0.031,0.0313,0.0327,0.0323,0.0323,0.0325,0.0325,0.0333,0.0334,0.0336,0.035,0.0353,0.0363,0.0349,0.037,0.037,0.037,0.0398,0.04,0.0402,0,0,0,0,0,0.0295,0.031,0.0313,0.0316,0.0328,0.0328,0.0328,0.0327,0.0326,0.0329,0.0335,0.0334,0.0352,0.0351,0.0354,0.0365,0.037,0.037,0.037,0.0397,0.0399,0.0402,0,0,0,0,0,0,0.0299,0.0312,0.0314,0.0333,0.0331,0.0327,0.0333,0.0329,0.0337,0.0339,0.0341,0.0343,0.0355,0.0354,0.0353,0.0369,0.0359,0.0359,0.0378,0.0381,0.0383,0.0392,0.0349,0,0,0,0,0,0.0307,0.0326,0.0325,0.034,0.0341,0.0337,0.0339,0.0337,0.0339,0.0342,0.0347,0.0352,0.0358,0.0365,0.0368,0.0384,0.037,0.0389,0.0391,0.0393,0.0401,0.0375,0.0376,0.0371,0.0371,0.0371,0,0,0.031,0.0322,0.033,0.0343,0.0343,0.035,0.0338,0.0341,0.0351,0.0344,0.0362,0.0359,0.0362,0.0376,0.0381,0.0379,0.0387,0.0393,0.0395,0.0402,0.0375,0.0376,0.0376,0.0371,0.0371,0.0371,0,0,0.0325,0.0338,0.0356,0.0359,0.0363,0.0361,0.0362,0.0361,0.0365,0.0379,0.0374,0.0376,0.0391,0.0392,0.0395,0.041,0.0396,0.0409,0.0434,0.0409,0.041,0.041,0.0396,0.0395,0.0414,0.0414,0.0414,0,0.0329,0.0355,0.0358,0.0374,0.038,0.0367,0.038,0.0383,0.0386,0.0395,0.0388,0.0401,0.0399,0.0415,0.042,0.0415,0.0402,0.0428,0.0412,0.0412,0.0412,0.0398,0.0396,0.0416,0.0416,0.0415,0.0415,0,0.0351,0.0375,0.0383,0.0405,0.041,0.0418,0.0418,0.0425,0.0426,0.0428,0.0442,0.0436,0.0443,0.044,0.0439,0.044,0.0432,0.0414,0.0408,0.0414,0.0399,0.0396,0.0418,0.0417,0.0417,0.0416,0,0,0.0354,0.0393,0.0397,0.0417,0.0429,0.0435,0.0451,0.0463,0.0476,0.0476,0.0492,0.0496,0.0488,0.049,0.0481,0.0464,0.0448,0.0445,0.0443,0.0435,0.0402,0.0387,0.0383,0.0427,0.0426,0.0426,0.0394,0,0.037,0.041,0.0425,0.0458,0.0475,0.0479,0.0496,0.0506,0.0509,0.0519,0.0512,0.0522,0.0509,0.0513,0.0494,0.0459,0.0443,0.0459,0.0394,0.0393,0.0381,0.0379,0.0425,0.0392,0.0392,0.0391,0.0391,0,0.0384,0.0413,0.0452,0.0494,0.0502,0.0523,0.0547,0.056,0.0568,0.0571,0.0575,0.0566,0.0559,0.0534,0.0486,0.0498,0.0457,0.0425,0.0422,0.0398,0.0373,0.0383,0.0386,0.0386,0.0387,0.0387,0.0387,0,0.0381,0.0431,0.0468,0.0481,0.0521,0.0547,0.0566,0.0581,0.0602,0.0605,0.0613,0.0597,0.0594,0.054,0.049,0.0483,0.0426,0.0402,0.0353,0.0351,0.0362,0.0362,0.036,0.036,0.036,0.036,0.036,0,0.039,0.042,0.0476,0.0496,0.0541,0.0565,0.0609,0.0616,0.0641,0.0663,0.0645,0.0648,0.0593,0.0559,0.0499,0.0427,0.0432,0.036,0.034,0.0376,0.0378,0.0361,0.0361,0.0359,0.0359,0.0359,0.036,0,0.0382,0.0416,0.0462,0.0521,0.0544,0.0575,0.0645,0.0675,0.0687,0.0711,0.0716,0.0694,0.0645,0.0591,0.0505,0.0444,0.0371,0.0343,0.0402,0.0385,0.031,0.0312,0.0276,0.0275,0.0274,0.0274,0.0273,0,0.0379,0.0405,0.0477,0.051,0.0545,0.0604,0.0648,0.0691,0.0719,0.0733,0.0739,0.0715,0.0689,0.0569,0.0497,0.0388,0.0366,0.0322,0.0301,0.0316,0.03,0.0304,0.0307,0.0272,0.0272,0.0272,0.0272,0,0.0375,0.0406,0.0444,0.0514,0.0573,0.0635,0.0697,0.072,0.0758,0.0776,0.0756,0.0703,0.0649,0.056,0.0489,0.0404,0.0344,0.0314,0.0314,0.0294,0.0311,0.0297,0.0301,0.0269,0.027,0.027,0.027,0,0.0371,0.0397,0.0455,0.0518,0.0583,0.0643,0.0682,0.0724,0.0757,0.0769,0.0761,0.0707,0.0685,0.0568,0.0495,0.0421,0.0385,0.0334,0.0332,0.0334,0.0356,0.0387,0.0354,0,0,0,0,0,0.0369,0.0406,0.0458,0.053,0.0593,0.0641,0.0703,0.0738,0.0774,0.0761,0.0764,0.0712,0.0604,0.056,0.0483,0.0467,0.0368,0.037,0.0307,0.0256,0.0259,0.0273,0,0,0,0,0,0,0.0371,0.0417,0.0452,0.0527,0.058,0.0661,0.0703,0.0732,0.0723,0.0739,0.0691,0.0672,0.0578,0.0658,0.0479,0.0457,0.0397,0.0331,0.0328,0.0254,0.0257,0.0259,0.0274,0,0,0,0,0]}]]